This demonstration page uses our WeatherBlox Daily Observations layout. Learn more.

Left ArrowRight Arrow

Hourly Observations for November 12, 2016

Temp ( °F °C ) Dew Point ( °F °C ) Humidity (%) Winds ( mph kmh ) Pressure ( in mb ) Visibility ( mi km ) Precip ( " mm )
12:51 am 00:51 Clear 56 13.3 40 4.4 55 55 ESE 10 17 30.15 1021 10 16.0934 N/A
1:51 am 01:51 Clear 55 12.8 40 4.4 57 57 ESE 10 17 30.16 1021 10 16.0934 N/A
2:51 am 02:51 Clear 50 10 38 3.3 63 63 S 10 17 30.16 1022 10 16.0934 N/A
3:51 am 03:51 Clear 52 11.1 40 4.4 64 64 SSE 9 15 30.17 1022 10 16.0934 N/A
4:51 am 04:51 Clear 51 10.6 40 4.4 66 66 SE 9 15 30.19 1022 10 16.0934 N/A
5:51 am 05:51 Clear 53 11.7 40 4.4 61 61 ESE 12 19 30.21 1023 10 16.0934 N/A
6:51 am 06:51 Sunny 51 10.6 39 3.9 64 64 SE 12 19 30.24 1024 10 16.0934 N/A
7:51 am 07:51 Sunny 54 12.2 39 3.9 57 57 SE 10 17 30.25 1025 10 16.0934 N/A
8:51 am 08:51 Sunny 58 14.4 39 3.9 50 50 SE 12 19 30.24 1024 10 16.0934 N/A
9:51 am 09:51 Sunny 63 17.2 39 3.9 41 41 ESE 10 17 30.24 1024 10 16.0934 N/A
10:51 am 10:51 Sunny 65 18.3 41 5 42 42 S 3 6 30.21 1023 10 16.0934 N/A
11:51 am 11:51 Sunny 68 20 40 4.4 36 36 SE 13 20 30.17 1022 10 16.0934 N/A
12:51 pm 12:51 Sunny 70 21.1 40 4.4 34 34 ESE 7 11 30.12 1020 10 16.0934 N/A
1:51 pm 13:51 Sunny 71 21.7 38 3.3 30 30 S 9 15 30.09 1019 10 16.0934 N/A
2:51 pm 14:51 Sunny 71 21.7 37 2.8 29 29 VRB 6 9 30.07 1018 10 16.0934 N/A
3:51 pm 15:51 Sunny 71 21.7 36 2.2 28 28 SSE 3 6 30.06 1018 10 16.0934 N/A
4:51 pm 16:51 Sunny 70 21.1 37 2.8 30 30 N N/A 30.06 1018 10 16.0934 N/A
5:51 pm 17:51 Clear 63 17.2 37 2.8 38 38 N N/A 30.08 1019 10 16.0934 N/A
6:51 pm 18:51 Clear 58 14.4 39 3.9 50 50 N N/A 30.1 1019 10 16.0934 N/A
7:51 pm 19:51 Clear 54 12.2 39 3.9 57 57 E 6 9 30.12 1020 10 16.0934 N/A
8:51 pm 20:51 Clear 54 12.2 39 3.9 57 57 ESE 5 7 30.12 1020 10 16.0934 N/A
9:51 pm 21:51 Clear 52 11.1 40 4.4 64 64 ESE 7 11 30.13 1020 10 16.0934 N/A
10:51 pm 22:51 Clear 52 11.1 39 3.9 61 61 SSE 9 15 30.14 1021 10 16.0934 N/A
11:51 pm 23:51 Clear 52 11.1 39 3.9 61 61 SE 8 13 30.13 1020 10 16.0934 N/A

Powered by AerisWeather